Theta_e
287 288 288 289 288 287 287 287 287 286 287 287 284 284 287 287 283 281 286 288 285 287 290 292 293 294 294 294 295 296 296 296 294 291 290 290 290 290 291 292 292 291 290 290 289 288 288 287 286 285 285 284 284 284 284 285 285 285 284 283 282 281 281 280 279 279 277 277 276 276 275 275 275 274 274 274 274 274 273 272 272 271 271 271 270 270 270
286 286 287 288 287 287 286 286 286 287 287 286 287 286 287 287 285 287 287 287 287 290 291 293 294 295 295 296 297 297 296 295 295 292 291 291 289 290 291 293 292 291 291 291 290 289 288 287 286 285 284 283 284 284 284 284 284 284 283 282 282 281 280 280 279 277 276 276 275 275 275 274 274 274 273 273 273 272 272 271 271 270 270 270 270 270 269
283 286 287 287 286 285 284 286 287 287 287 287 287 287 287 287 286 287 287 286 286 291 294 294 295 296 296 296 295 295 295 295 295 294 293 292 291 290 291 291 291 291 292 291 291 290 289 288 287 286 285 284 284 283 283 283 283 282 282 282 281 280 280 279 278 276 276 275 275 274 274 274 273 273 273 272 271 271 270 270 270 270 270 269 269 270 270
280 285 285 285 286 285 284 284 285 285 286 284 286 285 287 286 285 286 286 284 285 290 294 294 294 294 294 293 294 295 295 295 295 293 291 291 291 292 292 291 290 290 290 290 290 290 291 290 289 287 285 284 283 283 283 283 282 281 281 281 280 279 279 278 276 276 275 274 274 274 273 273 273 272 272 271 270 270 269 269 269 269 269 269 269 270 270
279 285 286 284 284 283 280 281 285 286 287 288 288 289 289 289 289 285 283 284 290 292 293 292 292 293 293 293 294 294 295 295 294 292 292 292 293 294 292 289 290 290 291 290 291 291 291 291 290 288 286 284 283 283 283 283 281 280 280 279 279 278 277 276 276 275 274 274 273 273 273 272 272 271 270 270 269 269 268 269 269 268 269 269 269 270 270
280 285 284 285 280 274 276 287 290 289 286 287 285 285 288 290 290 288 291 291 293 293 292 292 292 292 293 294 295 294 293 294 294 293 293 293 294 294 291 290 290 290 290 291 291 291 291 292 291 289 286 285 285 284 283 281 279 279 279 278 278 277 276 276 275 274 273 273 273 272 271 271 270 269 269 269 268 268 268 268 268 268 269 269 269 269 270
280 284 284 279 273 275 286 291 292 292 291 290 288 288 290 290 291 291 291 291 292 293 294 294 294 295 296 296 295 294 295 294 294 294 294 295 294 293 290 290 290 290 291 290 291 289 289 290 288 286 284 284 282 281 280 279 279 278 278 277 277 276 275 275 274 274 273 273 272 271 270 269 269 268 268 268 268 268 268 268 268 268 268 268 269 269 269
283 281 279 274 274 285 286 290 291 292 291 290 288 286 289 290 291 291 290 292 293 294 294 295 295 295 295 295 294 295 296 296 295 295 295 295 295 294 293 291 292 291 291 291 291 291 289 288 286 285 285 283 282 281 279 279 278 278 277 277 276 275 275 274 274 273 273 272 271 270 269 268 268 267 267 267 267 268 268 268 268 268 268 269 268 268 268
278 279 280 279 285 285 284 286 286 288 286 286 285 281 285 291 291 291 291 291 292 293 293 294 295 295 294 291 293 296 297 297 296 295 295 296 296 295 294 292 293 293 292 291 291 289 286 286 285 284 283 282 281 278 278 277 277 277 277 276 276 275 274 274 273 273 273 271 270 269 268 268 267 267 267 267 267 268 267 268 268 267 267 268 268 267 267
286 279 278 279 278 275 281 290 291 294 293 293 292 288 284 292 292 293 292 291 292 292 293 293 293 293 290 288 290 295 297 297 296 296 295 296 296 296 295 294 293 293 292 290 289 288 286 285 285 284 282 281 280 278 277 276 276 276 276 276 275 275 274 273 273 272 272 271 269 268 267 267 267 267 267 267 267 268 267 267 267 267 267 267 267 267 266
284 281 277 277 276 279 287 288 292 294 295 293 292 286 282 290 292 292 293 292 292 292 291 291 291 289 286 287 291 295 297 296 296 295 295 294 293 294 294 294 293 292 291 290 287 285 284 284 282 281 281 280 279 278 277 276 276 275 275 275 275 274 274 273 272 272 271 270 269 268 267 267 267 267 267 267 267 267 267 267 267 267 266 266 266 266 266
282 280 278 276 282 281 287 291 291 293 294 294 287 278 279 292 294 294 294 293 293 293 293 293 291 289 286 288 292 296 295 295 294 292 293 292 291 291 292 291 291 290 287 286 284 284 284 283 280 280 279 279 278 277 276 275 275 275 275 276 275 274 273 272 272 272 271 269 268 268 267 267 267 267 267 266 266 266 266 266 265 266 265 265 265 265 266
281 282 279 282 283 288 290 292 292 290 290 287 280 276 285 291 292 294 294 293 294 294 293 292 289 290 292 293 294 295 295 292 291 289 289 292 293 292 291 291 291 288 286 287 287 285 283 280 279 279 279 278 277 276 275 275 275 276 276 275 274 274 272 271 270 270 269 269 268 267 267 267 267 266 266 266 265 265 264 265 265 265 265 264 264 264 265
279 280 279 279 283 288 291 290 293 292 286 279 278 287 291 290 290 289 291 292 291 290 289 289 289 290 291 291 292 292 293 294 294 292 289 289 289 290 290 289 288 286 285 285 284 282 281 281 280 279 279 278 277 276 275 275 276 276 275 274 273 272 271 270 269 268 268 268 268 267 266 266 265 265 265 265 265 264 264 264 264 264 264 263 263 264 266
283 281 277 277 274 285 289 290 288 288 284 283 286 287 288 290 288 289 288 289 289 290 289 289 289 289 289 289 289 290 289 288 288 288 289 289 289 289 289 287 285 285 284 285 285 285 281 280 280 279 279 278 277 276 275 277 277 276 274 273 272 270 269 268 267 267 267 266 265 265 265 265 265 264 264 263 263 263 264 263 263 262 262 263 264 264 266
278 278 276 276 283 283 287 284 280 283 285 288 290 288 287 290 289 288 288 288 288 289 288 288 289 289 289 290 290 290 290 290 291 291 290 290 290 290 289 287 287 285 286 285 285 281 279 279 279 280 280 279 278 276 277 277 275 273 272 272 270 269 268 267 266 265 265 264 264 264 264 264 264 263 262 262 262 262 263 262 262 262 263 264 264 264 265
278 276 280 283 286 286 285 284 284 285 288 290 289 289 288 287 287 287 286 285 286 287 287 287 287 287 288 288 289 289 289 290 290 291 291 290 290 290 290 289 285 283 286 286 282 278 277 277 278 279 280 281 279 278 278 274 274 272 271 269 268 267 266 265 264 264 263 263 263 263 264 264 263 262 261 261 261 262 262 263 263 263 264 265 264 264 265
283 283 283 285 284 283 283 284 286 287 288 288 288 287 286 286 286 286 285 285 285 286 286 285 285 285 286 286 286 287 287 288 289 290 290 290 289 288 286 285 283 284 283 283 281 281 277 276 277 278 279 281 279 280 275 273 272 271 269 268 266 265 264 263 263 262 262 262 262 263 263 264 263 263 261 262 262 262 262 263 264 264 264 264 264 264 264
276 271 283 280 281 282 282 282 285 288 288 287 287 285 285 285 284 284 285 284 284 285 285 284 284 284 285 285 285 285 286 286 287 288 289 289 290 289 288 287 284 280 281 283 283 282 280 276 276 277 277 279 280 275 272 272 271 269 268 267 265 264 263 262 262 262 262 261 261 262 262 263 263 263 262 263 263 262 262 263 263 263 264 264 264 264 263
273 273 279 280 281 281 282 284 285 285 285 286 286 285 284 283 283 283 283 284 284 284 283 284 283 283 284 284 284 285 285 286 287 287 288 289 290 290 288 287 283 280 280 281 282 281 282 280 275 275 276 277 276 273 271 270 269 267 267 266 264 263 262 262 261 262 261 261 261 261 262 262 262 262 263 264 263 263 263 263 263 263 263 264 264 264 263
275 278 278 279 280 281 282 283 285 283 283 283 282 282 282 282 282 283 283 284 283 283 283 284 283 283 284 284 285 285 286 286 287 288 289 289 289 289 289 285 281 282 281 280 281 281 281 280 275 274 274 275 272 270 270 268 268 267 266 265 264 262 262 261 261 262 261 261 261 261 261 262 263 263 263 264 263 264 265 265 265 264 264 264 265 265 264
272 273 276 278 272 272 277 278 280 281 282 282 281 282 282 283 283 283 283 283 284 284 284 284 284 284 284 285 285 286 286 287 288 289 289 290 289 289 288 287 282 281 280 281 280 280 281 278 274 274 273 273 271 270 268 268 267 267 265 264 263 262 261 261 261 261 261 261 261 261 261 262 262 262 265 267 266 264 265 268 270 270 269 265 266 265 265
273 278 278 278 277 277 278 279 280 281 281 281 281 281 281 282 283 283 282 281 281 282 284 285 285 285 285 285 286 285 286 286 287 288 288 288 288 289 289 289 287 283 281 280 280 280 280 277 274 274 273 272 269 269 268 268 268 267 265 263 262 262 261 261 261 261 261 261 261 261 262 262 262 262 263 266 269 269 269 270 271 271 271 271 271 270 267
276 278 278 279 278 276 278 280 280 281 281 279 278 280 281 281 281 280 280 279 279 280 281 282 283 283 283 284 284 284 285 286 287 287 287 288 288 288 288 288 287 287 285 280 279 280 282 278 275 273 272 271 269 268 267 267 268 267 265 264 263 262 262 262 262 262 262 261 261 261 262 262 262 262 263 264 265 269 271 271 272 272 272 272 271 271 271
275 278 278 278 278 279 280 281 281 280 278 278 277 277 278 278 278 279 278 279 279 279 279 279 280 281 282 282 283 283 284 285 286 286 286 287 287 287 287 287 287 287 287 286 284 283 282 279 274 272 271 270 268 267 267 267 267 266 265 264 264 263 262 262 262 262 262 262 261 261 261 261 261 263 263 263 264 265 268 271 272 272 271 271 271 271 271
278 278 277 275 276 278 279 278 276 277 277 278 277 277 277 278 278 278 277 277 277 278 278 279 279 280 280 280 280 281 281 282 284 284 284 284 285 286 286 287 287 288 288 287 286 284 282 278 274 272 271 270 268 267 266 267 267 267 265 265 265 263 262 262 262 262 262 262 262 262 262 262 262 263 263 264 264 264 263 265 267 269 270 270 270 271 270
277 274 273 273 273 274 274 272 272 275 276 276 275 275 275 275 276 275 275 275 275 277 277 278 279 279 280 280 280 280 280 281 283 283 283 283 284 285 286 287 287 288 287 286 286 283 280 276 273 272 272 271 268 266 266 266 266 266 265 266 265 264 263 262 262 262 262 262 262 262 263 263 263 263 263 264 264 263 263 263 263 262 261 262 266 268 266
272 272 271 268 269 270 271 273 273 272 272 272 272 272 272 272 271 270 270 271 272 274 275 275 276 276 276 277 278 277 278 278 279 280 281 281 282 284 285 285 286 287 287 286 285 282 277 274 272 271 271 270 267 266 265 266 266 265 265 265 265 264 263 263 262 263 263 262 263 263 263 263 264 263 263 263 263 262 262 262 262 260 258 257 256 264 268
269 269 270 270 270 271 272 271 269 269 269 270 271 270 269 267 267 268 269 270 271 272 272 273 274 274 273 274 275 275 275 276 276 277 278 280 281 282 283 284 284 285 285 284 284 281 274 271 271 270 271 269 266 265 265 265 265 265 265 265 264 264 263 263 263 263 263 263 263 264 265 263 262 262 262 262 261 261 260 260 259 258 257 256 254 255 259
267 267 267 267 268 269 267 266 267 267 267 268 267 267 267 266 265 266 268 268 269 269 269 270 270 270 271 271 272 272 273 273 275 276 277 279 280 281 282 282 283 282 278 276 276 274 271 270 270 270 270 266 264 264 264 264 265 265 265 265 265 264 264 263 263 263 263 263 263 264 262 261 261 261 260 260 259 259 258 257 257 256 255 255 258 255 254
265 265 264 266 267 266 264 265 265 266 266 266 265 265 265 265 265 265 266 267 267 267 267 267 267 268 268 268 269 270 271 271 272 273 274 275 276 278 279 279 279 278 279 279 278 275 272 271 271 271 270 265 263 263 263 264 264 265 265 265 265 265 265 265 265 263 263 262 262 261 260 260 260 259 258 258 257 257 257 257 256 255 255 255 254 253 252
261 262 263 265 264 262 262 263 264 263 264 264 263 263 263 263 262 263 263 264 264 265 265 265 265 265 266 267 267 268 268 268 269 270 271 272 273 274 276 277 278 278 280 281 281 278 273 271 270 271 268 263 263 263 263 264 265 265 265 264 265 265 265 265 264 264 263 262 261 260 259 259 259 258 258 257 257 256 256 256 255 255 254 254 253 253 253
259 259 261 261 260 260 260 261 261 261 261 261 262 263 263 263 263 263 263 263 263 263 263 263 264 264 265 265 265 265 265 266 267 268 268 269 271 273 274 276 278 279 279 280 281 280 274 272 272 270 265 263 262 262 263 264 265 265 265 264 265 265 264 266 264 263 262 261 260 260 259 259 258 258 257 257 256 256 255 255 255 254 254 254 254 253 254
259 258 259 260 260 259 258 259 260 260 261 261 262 262 261 262 262 262 261 262 261 261 262 262 263 263 263 263 263 264 265 265 265 266 268 269 271 272 273 275 276 278 279 280 281 280 276 274 272 267 264 263 262 263 263 264 265 265 265 265 265 264 264 264 263 262 260 259 259 259 259 258 258 258 257 256 256 256 255 255 254 254 253 253 253 252 257
261 261 261 260 261 260 261 260 260 259 259 259 259 260 260 260 260 260 261 261 260 260 261 262 262 262 262 263 263 264 264 264 265 266 267 269 270 271 273 274 275 277 278 279 279 279 277 273 269 265 263 263 263 263 264 264 265 265 265 265 264 264 263 262 261 260 259 259 259 258 258 258 257 257 256 256 256 255 255 254 254 254 253 253 252 251 254
259 258 259 259 259 259 259 259 259 259 258 258 258 259 259 259 259 259 259 259 260 261 261 261 261 262 262 262 263 263 264 265 266 267 268 269 270 271 272 273 274 275 276 278 279 276 272 269 263 262 262 262 263 264 264 265 265 265 265 265 263 263 261 260 260 260 259 259 258 258 258 257 256 255 255 255 255 255 254 254 253 253 253 253 252 252 251
258 257 257 257 257 257 257 257 257 257 257 257 257 257 258 258 258 259 259 259 260 260 261 261 261 261 262 263 264 265 266 266 267 268 269 270 271 272 272 273 274 274 275 275 277 271 268 265 261 261 262 263 263 264 264 263 265 265 264 264 263 261 260 260 259 259 258 258 258 257 256 255 255 255 254 254 254 254 254 253 253 253 252 252 251 251 250
256 256 256 256 256 256 256 256 257 257 257 257 257 258 258 258 258 259 259 259 260 260 261 261 262 263 263 264 265 266 267 268 268 269 270 270 271 272 272 273 274 275 275 277 273 268 268 262 260 262 263 263 263 264 263 263 263 264 264 263 262 261 260 259 258 258 257 256 256 255 255 254 254 254 254 254 254 253 253 253 252 252 251 251 250 250 249
255 256 256 256 256 255 255 256 257 257 257 256 256 257 258 259 259 259 259 259 260 261 261 262 263 263 264 264 264 265 267 269 270 271 271 272 273 273 273 275 272 270 272 271 267 266 262 261 262 262 262 263 263 264 263 262 262 264 263 262 261 260 259 258 258 257 256 256 255 254 255 254 254 254 253 253 253 253 252 252 252 251 251 250 250 249 249
254 254 254 255 254 255 255 255 256 256 256 257 257 256 257 258 258 258 259 259 261 262 262 263 263 262 262 263 264 265 266 266 266 266 265 266 266 268 269 270 262 262 263 263 264 262 261 261 262 262 263 263 263 263 262 262 262 263 262 262 261 260 259 258 257 256 255 255 255 255 255 254 254 253 253 253 252 252 252 252 251 251 250 250 249 249 248
253 253 254 254 254 255 255 255 255 256 256 256 257 257 258 258 259 259 259 260 262 263 262 261 261 261 262 263 263 264 264 265 263 260 259 260 262 265 266 264 258 260 261 261 260 260 260 261 262 262 263 263 263 262 262 261 263 262 262 261 260 259 258 257 256 255 255 255 255 255 255 254 253 253 252 252 252 251 251 251 251 251 250 250 249 248 247
253 254 254 254 254 254 254 255 255 255 256 256 257 258 258 259 259 259 259 261 261 261 260 261 262 262 262 262 262 262 263 262 261 260 259 257 256 258 259 257 258 258 259 259 259 260 261 261 262 261 262 262 262 260 261 262 262 261 261 260 259 258 257 256 256 255 256 256 256 255 254 254 253 252 252 252 251 251 251 251 250 250 250 249 249 249 248
253 253 253 253 254 254 254 254 255 255 256 257 257 258 258 259 259 259 260 260 259 259 259 259 260 261 260 260 260 259 259 259 259 259 258 257 257 257 257 257 258 258 259 259 260 260 261 261 262 262 261 261 261 259 260 261 261 260 259 258 257 256 256 256 256 256 256 255 255 255 254 254 253 253 252 252 252 251 251 251 251 250 250 249 248 248 247
253 253 253 253 253 254 254 255 256 256 256 256 258 258 258 259 259 260 260 259 259 259 258 258 258 258 258 259 259 257 256 256 256 257 258 256 256 257 258 258 258 259 259 259 260 260 260 261 261 260 259 259 259 259 260 260 259 259 258 257 257 256 256 256 256 256 256 255 255 255 254 254 254 253 253 252 252 252 252 252 252 251 250 249 248 248 246
253 253 253 253 254 254 255 255 256 255 256 257 258 258 258 259 260 260 259 259 258 258 258 257 257 257 257 257 258 257 256 256 255 256 255 255 254 254 257 258 259 259 259 259 259 259 259 259 259 258 258 258 259 259 260 259 259 258 257 257 257 257 256 256 256 256 255 255 255 255 254 254 254 254 254 253 252 252 253 252 252 251 250 249 248 247 247
253 253 254 255 254 255 256 256 257 257 257 257 257 257 258 258 258 259 259 259 258 258 257 257 256 256 256 256 256 258 257 256 256 257 256 256 255 255 258 258 258 258 258 258 257 257 257 257 258 258 258 258 258 259 259 259 258 258 258 257 257 256 256 256 256 255 255 255 255 255 255 255 255 254 254 253 253 253 252 251 250 250 249 248 247 246 246
253 253 254 254 255 256 256 256 257 257 256 256 254 255 256 257 257 258 258 257 257 257 257 256 256 256 256 256 255 255 255 255 255 257 257 257 258 258 258 258 258 257 257 257 256 257 257 257 257 257 258 258 258 258 258 258 257 257 257 257 257 256 256 256 255 255 255 255 254 254 253 253 254 253 252 252 252 251 250 250 249 249 248 247 246 247 246
253 253 254 255 255 255 256 256 255 254 254 254 254 255 256 256 256 258 257 256 256 256 256 256 256 256 256 256 256 256 256 255 254 254 257 256 256 256 256 256 256 256 256 256 256 256 257 257 257 257 257 257 258 258 257 257 257 257 257 256 256 256 255 255 255 254 254 253 253 253 252 252 252 252 252 252 251 250 250 249 249 247 246 246 245 245 244
253 254 255 255 255 255 255 255 254 254 254 254 255 255 255 255 256 256 255 255 255 255 255 255 255 255 256 256 256 256 257 257 256 254 255 256 255 255 256 256 256 256 256 256 256 256 256 257 257 257 257 257 257 257 257 257 257 256 256 256 255 255 255 254 254 254 253 253 253 253 252 252 252 251 251 250 250 249 248 248 247 246 245 245 245 245 245
254 255 254 254 254 254 254 254 254 254 254 255 254 255 255 254 253 253 254 254 254 255 254 254 254 255 255 256 256 256 256 256 256 256 256 255 255 256 256 256 256 256 256 256 256 256 256 256 256 256 257 257 257 257 257 257 256 256 255 255 255 254 253 253 253 253 253 252 252 252 252 251 251 250 250 249 249 248 247 247 246 247 248 247 245 244 244
254 254 254 255 255 255 255 255 254 255 254 254 254 255 254 253 253 253 253 254 254 253 253 254 254 254 255 255 255 255 255 255 255 255 255 255 255 255 256 256 256 256 256 256 256 256 256 256 257 256 256 256 256 256 256 255 255 254 254 253 253 253 253 253 253 253 253 252 252 251 251 250 250 250 249 248 248 247 247 246 245 244 243 243 243 244 244
255 255 255 256 255 255 255 255 255 255 255 255 254 254 254 253 253 253 253 254 253 253 253 253 252 254 255 255 255 255 255 255 255 255 255 255 255 255 255 255 255 255 255 255 255 255 255 255 255 255 255 255 254 254 253 253 253 253 253 253 253 253 252 252 252 252 251 251 251 250 250 250 250 249 248 248 247 247 246 246 245 244 244 244 244 244 244
Wind_Speed
19 20 21 20 21 20 20 20 17 19 21 18 17 18 20 20 18 21 14 18 21 23 21 21 25 26 23 20 17 17 17 15 10 7 9 10 9 7 8 10 11 11 10 10 12 12 13 12 11 12 11 9 8 7 7 10 11 13 12 13 13 13 13 14 15 14 12 12 11 12 13 13 13 13 12 11 10 10 9 8 6 7 6 6 6 5 4
19 19 22 24 26 23 23 21 22 23 23 23 23 26 27 25 24 24 25 28 32 26 23 24 26 23 23 22 21 21 21 22 19 11 8 10 6 8 10 12 13 11 12 12 12 12 12 11 12 11 10 10 11 12 12 12 12 10 12 13 14 15 16 15 13 13 13 12 13 13 13 13 12 12 11 11 10 10 9 8 7 7 6 5 6 5 5
19 22 23 22 24 22 25 24 22 22 22 26 28 26 22 21 24 29 30 29 27 21 25 26 25 25 23 24 27 29 28 23 21 17 12 12 8 8 11 13 12 12 13 13 12 11 12 12 14 14 13 13 11 10 10 11 13 12 13 14 14 15 15 13 13 13 13 13 12 13 12 11 10 12 12 10 10 10 9 9 9 8 7 6 5 6 7
15 15 21 23 24 23 25 24 23 22 25 27 25 22 23 22 23 23 20 18 18 22 24 23 24 24 25 27 29 28 24 22 18 15 9 9 11 12 12 11 11 11 12 12 12 13 13 14 14 12 11 11 11 13 12 13 12 12 13 13 14 13 12 12 13 14 13 13 13 13 12 12 12 11 11 11 11 10 10 9 8 7 6 7 7 6 6
17 14 19 22 21 19 20 20 25 33 32 27 21 21 21 22 23 21 18 21 21 23 20 18 20 24 26 26 23 26 24 19 18 11 10 12 13 17 11 8 12 12 12 12 12 13 13 14 13 13 14 12 14 13 13 13 11 12 13 13 13 13 12 12 13 12 11 12 11 11 11 11 11 11 11 11 11 12 12 7 6 7 8 7 7 7 6
10 12 18 12 13 18 17 17 32 30 29 27 28 27 29 33 24 20 20 23 21 20 17 20 24 27 28 26 25 14 9 16 16 12 12 12 16 15 9 8 9 10 9 9 11 12 13 14 14 13 13 16 15 13 12 11 13 13 13 11 11 11 11 12 12 12 12 12 12 11 10 10 10 11 11 11 8 6 7 8 7 7 7 7 6 7 6
11 11 12 11 21 19 9 13 10 17 24 27 30 31 30 28 26 28 27 27 25 23 21 22 25 27 28 28 22 9 13 13 14 16 17 17 16 13 7 8 9 9 10 10 11 9 9 11 9 7 9 9 7 10 11 13 12 13 12 12 12 13 14 13 13 13 14 13 13 12 12 12 12 12 12 10 9 8 8 8 9 8 8 7 6 5 4
7 7 8 14 15 2 3 9 13 14 19 23 23 26 25 28 29 30 29 26 24 23 25 25 25 25 27 20 11 14 19 19 16 16 15 17 15 12 10 9 10 9 10 11 11 11 8 7 8 10 12 10 12 12 11 14 12 13 13 13 14 13 14 14 15 15 15 15 14 13 13 13 12 10 9 9 11 9 8 7 6 6 5 6 6 5 5
14 10 14 23 10 14 5 4 5 11 16 13 19 24 27 28 27 24 23 23 24 24 25 25 24 23 17 11 14 19 22 20 16 12 12 14 15 13 11 8 10 11 9 8 10 7 5 8 9 10 9 11 12 12 12 12 13 12 13 14 15 16 15 15 16 16 16 16 15 15 15 13 10 10 11 10 8 7 8 8 8 7 6 5 5 5 5
14 16 12 14 13 16 13 14 13 17 22 23 25 20 24 6 12 12 19 23 26 28 25 22 18 14 15 16 17 21 23 21 14 12 10 10 14 13 12 9 8 9 8 6 5 6 6 7 9 8 10 12 13 12 13 12 13 13 14 16 15 15 16 16 16 16 16 16 17 16 15 15 11 10 8 7 8 7 8 9 8 7 6 5 4 4 5
12 17 14 13 14 15 4 15 18 22 22 23 20 15 23 5 9 10 20 23 21 19 14 12 12 11 12 14 16 17 22 16 12 13 10 7 9 11 12 11 12 10 8 5 6 5 6 8 5 7 10 12 12 12 11 13 12 13 15 14 15 17 16 15 14 14 14 15 16 16 15 14 11 11 10 9 8 7 6 6 7 6 6 5 5 4 5
13 15 17 17 8 14 11 13 13 18 20 15 6 18 12 12 19 21 23 24 20 15 18 19 15 12 13 14 17 17 14 11 8 5 8 9 8 10 11 9 8 7 4 4 4 6 7 6 7 9 9 9 9 10 10 11 13 14 16 15 11 9 11 13 13 13 13 14 14 15 15 15 8 7 7 8 8 8 6 5 6 6 5 5 5 4 5
20 22 17 13 12 4 8 14 9 10 6 1 12 21 11 5 10 15 16 15 13 17 19 14 10 7 12 12 11 11 12 8 8 7 5 9 9 9 8 9 5 4 5 7 8 8 6 7 8 8 9 10 10 10 12 12 15 17 12 10 12 12 12 12 12 13 12 14 16 13 14 16 9 8 6 8 8 7 8 7 6 6 6 4 3 4 5
14 15 16 19 14 6 3 3 9 5 1 9 14 8 13 15 15 14 15 13 14 14 13 12 10 12 12 11 11 13 14 15 13 9 7 6 6 6 3 1 2 3 4 4 4 4 6 10 11 11 11 11 10 10 11 16 18 9 11 12 12 13 14 14 13 13 13 13 13 15 16 14 11 9 7 7 7 7 6 7 8 6 5 4 4 5 5
10 12 13 10 10 7 16 11 5 3 9 4 9 10 10 11 13 15 12 12 12 16 14 13 12 13 11 11 12 12 12 11 11 12 11 9 7 8 6 4 1 3 3 5 7 6 5 7 9 11 13 13 12 12 14 19 11 11 11 12 13 13 14 15 14 15 14 16 15 15 17 11 11 11 9 8 7 7 8 7 7 7 6 6 6 5 4
6 8 11 5 4 5 9 15 6 10 10 9 7 8 9 9 11 12 13 12 12 13 14 16 17 14 12 15 15 14 13 13 13 13 12 12 11 10 8 5 5 4 5 5 6 4 5 5 7 9 14 13 12 13 20 6 9 8 10 12 14 15 15 15 14 14 16 17 18 17 16 11 9 11 10 8 7 6 6 7 7 6 6 6 6 5 5
3 5 7 10 7 4 5 6 11 11 11 5 8 5 6 7 10 9 9 12 15 12 13 17 16 17 16 16 15 13 13 14 13 13 12 10 10 10 10 11 4 4 8 9 6 4 6 7 7 9 9 14 13 17 8 11 12 13 13 13 14 15 15 15 15 14 16 17 17 17 16 16 13 10 10 9 9 7 7 7 7 7 8 7 6 6 5
9 11 15 8 6 12 17 17 8 9 6 5 6 8 9 7 4 6 9 12 13 15 14 15 17 17 17 19 20 19 18 16 15 13 12 11 8 7 7 6 6 8 6 4 5 7 6 7 8 8 9 9 14 15 9 11 12 14 15 16 15 16 15 15 16 16 16 11 10 9 11 6 6 9 12 10 9 9 7 8 8 8 8 7 6 6 5
12 9 5 13 15 18 21 20 13 3 1 6 6 7 7 11 13 14 9 11 14 15 14 14 15 18 19 20 19 18 17 18 17 16 15 14 12 9 9 9 7 5 6 7 8 8 9 6 8 8 9 10 8 4 10 11 12 14 15 16 15 15 17 16 16 15 13 12 10 8 8 7 7 7 7 8 9 9 9 9 9 8 8 8 7 6 6
12 13 15 18 18 19 15 12 12 4 7 9 7 9 11 12 13 13 15 15 14 10 12 12 13 15 16 17 18 18 17 16 15 16 16 16 15 11 7 8 7 7 6 8 9 8 10 10 9 9 9 10 6 7 8 11 13 14 15 16 17 18 18 17 12 10 10 15 15 10 9 9 10 8 6 8 11 12 12 12 11 10 9 9 9 8 7
16 18 15 12 14 12 11 6 1 10 15 14 15 14 14 13 14 15 15 11 11 12 13 13 13 12 14 14 14 15 15 16 15 15 15 15 13 12 9 5 5 8 8 9 10 9 12 7 8 9 10 9 7 10 11 12 15 16 15 15 14 16 15 13 11 9 8 10 10 11 11 7 3 5 9 12 10 8 6 6 9 11 10 9 8 7 7
14 12 13 13 15 17 21 20 14 12 12 15 16 16 14 14 15 14 14 14 10 8 10 13 12 12 13 13 11 11 12 13 14 15 15 14 13 12 8 6 4 7 8 9 10 11 13 8 9 11 11 10 9 10 12 14 16 17 16 15 15 16 15 13 8 10 9 9 9 9 10 12 13 8 5 10 8 8 9 12 14 12 11 8 8 7 7
14 13 17 17 19 21 17 18 18 18 15 12 12 12 13 13 11 11 14 17 17 15 11 9 11 12 13 15 14 15 13 15 15 15 17 16 15 14 13 12 9 7 9 9 10 11 12 7 10 12 11 11 11 12 14 15 18 18 18 16 15 15 15 13 13 11 9 9 9 7 7 10 10 10 10 9 12 13 12 15 15 16 14 15 17 14 9
22 19 17 13 14 17 18 18 17 14 9 10 11 11 12 12 13 14 14 13 16 18 16 13 12 14 16 16 15 15 16 16 15 15 14 14 13 14 13 12 11 12 9 8 11 15 13 10 12 11 11 11 13 13 14 15 16 17 19 18 18 17 17 12 13 10 9 11 11 10 8 7 7 9 10 12 10 13 16 15 15 15 15 15 15 14 14
17 14 15 12 12 14 13 13 10 7 10 13 12 12 13 14 15 14 15 14 12 14 16 18 16 12 12 15 15 15 15 16 15 16 16 16 16 15 14 14 15 13 13 12 12 12 11 10 10 10 12 13 12 13 15 16 18 18 20 20 19 17 17 12 8 12 9 10 10 10 14 14 13 12 11 12 13 13 11 15 15 14 14 14 14 14 14
14 12 7 6 6 9 8 11 9 11 14 13 14 14 16 13 14 15 15 15 15 14 15 15 18 17 13 13 13 15 16 17 18 18 15 15 15 15 15 15 14 12 12 11 11 11 10 10 12 11 13 13 14 16 17 17 19 21 22 22 22 19 18 15 13 12 10 10 11 9 13 14 14 12 12 14 17 16 14 11 10 10 11 12 13 14 13
5 8 9 11 8 10 7 7 10 12 10 10 11 13 13 14 13 12 13 14 14 14 14 14 14 15 15 13 13 12 13 16 17 17 16 17 18 17 16 15 14 14 13 13 12 12 13 11 11 12 14 15 15 15 17 19 19 19 20 21 16 18 26 23 10 10 11 11 10 14 15 15 14 14 13 12 12 13 13 15 15 11 9 6 8 11 7
5 7 9 2 8 10 13 13 9 10 12 11 10 10 11 13 14 14 15 15 14 13 13 12 14 15 17 17 17 18 15 14 15 16 18 18 17 17 17 17 17 17 15 15 14 12 10 9 11 13 16 14 13 16 17 19 20 19 19 19 17 15 17 19 14 9 8 9 14 14 17 14 13 13 12 13 12 10 9 10 11 10 7 5 2 3 11
9 8 6 4 7 11 9 9 12 12 12 11 10 10 11 13 16 16 16 15 15 14 14 15 13 13 14 17 15 17 17 17 18 18 18 18 18 18 17 18 19 18 18 17 16 12 8 8 10 12 15 10 11 14 16 17 17 17 17 18 16 17 14 16 16 10 10 11 13 13 14 12 11 10 10 10 9 9 9 10 10 8 8 6 4 2 6
9 9 9 9 9 3 9 12 13 15 15 14 14 15 14 12 14 17 18 18 16 17 18 17 15 15 15 15 16 16 16 17 18 17 17 16 16 16 16 16 16 15 13 13 14 11 10 11 13 15 14 10 14 15 17 17 16 17 20 21 19 19 19 18 16 16 15 18 17 17 14 13 12 12 11 10 10 10 10 10 10 10 9 8 7 8 8
13 12 11 10 6 6 8 10 12 12 14 14 16 16 16 12 12 15 18 18 17 17 18 17 18 19 19 16 15 15 17 17 19 18 19 18 18 18 18 16 17 16 16 17 16 13 13 15 15 16 12 13 16 17 18 17 15 14 14 14 15 15 17 21 22 21 18 15 14 14 13 14 12 12 12 11 10 9 8 9 9 9 8 8 7 7 6
15 15 12 3 4 9 12 10 10 12 13 14 16 19 19 17 18 19 19 19 19 18 20 22 22 21 19 16 16 17 17 14 18 17 21 19 20 18 17 15 18 20 20 20 18 14 12 13 14 16 10 14 16 17 17 16 14 15 15 17 17 14 18 26 17 18 15 14 14 14 14 14 12 11 11 11 11 10 9 9 9 9 8 8 8 7 6
12 16 17 18 19 20 19 17 13 15 15 16 16 16 16 16 15 15 15 15 17 18 16 16 15 16 15 18 19 19 19 19 19 22 21 20 19 18 16 14 14 17 19 18 18 15 13 16 18 10 12 15 15 17 18 18 16 15 13 15 14 13 15 18 15 15 12 12 13 13 12 12 12 12 12 11 10 9 8 8 8 8 7 7 7 6 6
7 5 10 11 8 12 16 21 18 16 16 15 15 16 17 17 17 17 17 15 14 17 17 16 16 19 19 17 19 20 19 20 19 17 15 18 18 20 18 19 18 22 20 20 18 15 12 15 10 8 13 15 16 16 17 17 15 13 15 16 14 14 15 13 14 13 13 11 11 12 12 11 11 11 11 11 11 10 9 9 8 8 8 7 6 5 5
8 11 12 13 12 12 12 14 16 17 17 19 21 20 17 17 16 18 20 20 20 18 16 16 18 17 17 19 19 19 17 18 20 21 22 21 20 19 16 19 21 19 21 20 18 16 14 12 10 11 14 15 16 16 17 18 16 15 17 16 15 14 14 12 13 13 14 13 13 12 10 10 9 8 10 11 10 9 9 8 8 8 8 8 6 5 3
11 12 12 11 11 11 13 13 14 16 17 18 19 20 21 21 21 21 21 22 18 17 18 19 18 17 21 18 19 20 20 18 19 18 22 19 21 16 18 19 22 22 23 22 18 13 7 7 12 17 14 15 15 16 18 17 17 16 17 15 14 14 12 13 12 11 11 13 13 11 10 10 10 10 10 9 9 9 9 9 8 7 8 7 7 6 3
10 12 13 14 13 13 14 13 13 14 17 18 19 20 22 23 21 20 20 20 19 19 19 19 20 20 20 19 18 19 20 18 18 17 19 18 18 17 20 21 22 23 21 20 15 7 9 10 16 23 16 15 16 17 19 24 17 16 16 15 15 15 15 15 14 13 12 10 11 11 12 11 10 9 8 9 9 8 8 8 7 7 7 7 6 6 6
12 11 14 15 15 15 16 14 14 16 20 23 22 19 19 21 21 19 19 19 19 20 20 20 20 22 22 20 18 17 19 17 19 20 22 21 19 20 22 21 19 17 16 18 5 11 9 13 21 17 12 13 14 15 20 26 22 19 16 16 16 16 16 15 14 12 13 14 10 12 14 12 13 10 8 8 8 8 8 8 8 8 7 7 6 6 6
15 11 11 12 14 14 16 16 13 13 15 19 22 21 18 19 22 20 20 19 19 19 21 21 21 20 19 20 22 20 17 17 16 17 18 20 19 19 20 18 10 8 10 4 9 8 11 15 14 13 12 13 15 16 21 24 24 16 15 15 16 15 16 15 16 14 14 13 11 14 12 10 9 10 9 8 8 7 7 8 8 8 8 7 7 7 6
14 15 16 15 16 15 15 16 15 15 15 15 17 21 20 20 20 19 19 20 19 19 18 16 19 19 20 22 20 19 16 16 17 18 17 17 16 18 18 18 6 8 3 3 5 7 13 19 15 11 11 13 15 15 17 22 21 15 15 15 15 15 15 15 17 18 13 12 13 12 10 10 9 9 8 8 8 7 7 7 8 7 7 6 6 6 6
15 16 16 15 17 15 15 17 18 17 16 17 17 17 18 18 19 20 21 20 18 15 17 18 18 18 19 19 19 19 19 15 10 9 11 10 11 10 12 10 7 7 4 3 7 10 15 13 11 12 11 13 13 16 16 21 16 14 14 14 14 14 15 18 20 21 17 13 13 12 12 11 10 10 8 8 8 7 7 7 7 7 7 7 6 6 5
17 17 17 17 17 16 16 16 17 18 17 16 17 17 19 18 19 20 20 18 16 15 16 17 19 19 18 16 16 16 15 11 9 8 8 7 7 8 7 4 6 4 5 9 10 11 10 10 9 10 12 13 13 20 20 16 14 13 13 13 14 16 17 16 14 13 11 10 11 10 9 9 10 9 8 8 8 7 7 7 6 6 5 6 6 6 6
17 18 19 18 17 17 16 16 17 18 19 17 16 17 17 17 18 19 16 13 14 14 14 14 15 16 15 14 12 12 10 10 10 9 6 6 8 8 5 3 4 4 8 7 7 7 7 7 8 9 13 14 16 23 20 13 12 13 13 14 15 18 18 17 14 12 12 12 9 9 10 10 10 9 9 8 7 6 6 7 6 6 6 6 5 5 5
19 18 17 17 17 17 17 16 17 16 17 17 17 17 18 17 17 15 13 14 14 14 13 12 13 13 13 12 9 7 8 8 8 7 5 5 6 10 10 5 5 6 9 6 6 6 7 7 8 14 18 21 24 21 13 12 14 13 14 13 13 15 14 12 10 11 11 10 10 8 7 9 9 9 8 8 7 6 6 5 5 6 6 6 5 5 4
18 16 17 17 19 18 16 14 16 17 17 17 17 16 16 16 14 13 14 13 12 12 13 12 12 12 11 11 10 5 7 7 6 7 6 5 6 7 8 6 7 6 9 10 8 8 8 9 15 20 20 21 19 17 12 12 13 14 16 15 13 13 12 12 11 10 10 10 9 9 7 8 8 8 8 7 7 8 7 7 6 6 7 6 6 5 5
18 17 17 19 18 17 15 16 17 16 17 17 17 15 13 14 14 14 12 12 13 11 10 12 12 12 12 11 11 8 5 6 7 7 6 5 4 4 7 9 8 9 15 14 9 11 11 20 22 21 20 19 18 13 12 13 13 15 14 13 12 10 9 10 10 9 9 9 9 9 8 7 8 7 7 7 7 7 7 6 6 5 5 5 5 5 4
17 18 17 16 16 17 17 17 16 16 15 14 13 13 13 14 15 12 10 14 14 13 10 10 10 11 10 10 8 8 7 6 7 8 7 7 8 9 11 14 14 15 12 10 10 10 11 15 17 20 19 19 17 13 13 15 17 16 13 11 11 10 9 10 10 9 9 8 7 8 8 7 7 7 6 7 7 7 7 7 6 6 5 6 4 4 4
18 18 18 20 20 19 18 15 13 12 11 11 12 12 12 13 15 11 11 11 12 12 10 10 10 11 11 11 9 7 5 5 5 8 9 9 9 9 9 10 13 19 19 17 19 18 23 23 23 23 22 19 15 15 18 16 12 11 11 11 9 9 9 7 7 8 8 8 9 7 6 8 7 7 7 6 6 6 6 6 6 6 5 5 5 5 4
19 20 19 16 15 16 15 13 12 11 9 11 12 10 12 13 12 10 10 11 13 11 10 10 11 10 10 11 11 8 8 8 8 8 8 8 9 9 10 13 19 18 14 12 13 12 19 22 22 22 21 16 11 10 10 8 10 10 9 9 9 9 8 8 8 9 12 9 8 8 8 8 6 6 7 6 5 5 5 6 6 6 6 5 4 4 3
15 13 11 11 11 10 10 10 9 8 10 11 10 10 11 11 9 9 10 9 9 9 8 9 9 9 9 8 8 9 9 10 11 10 10 10 10 9 10 11 12 17 16 13 13 14 17 22 19 17 14 11 11 11 11 11 10 10 10 11 9 8 9 10 9 10 9 8 8 7 7 7 6 7 6 6 6 6 5 6 6 5 6 5 4 3 2
12 11 11 9 8 9 11 10 9 10 9 9 9 10 10 9 9 9 9 10 9 9 9 9 8 9 8 9 8 9 9 10 11 11 10 11 11 13 13 11 13 12 13 13 12 12 11 10 10 11 12 11 10 11 10 10 8 10 10 8 11 9 8 8 7 8 7 7 7 7 7 7 7 7 6 6 6 6 5 6 5 4 4 3 3 2 1
12 11 10 8 8 8 8 8 8 8 8 8 7 8 8 8 8 8 8 12 8 6 8 7 8 9 8 8 8 9 9 10 9 9 10 11 10 10 12 14 12 13 12 13 13 10 8 9 12 15 14 11 9 10 11 13 11 10 10 9 9 9 8 7 7 8 7 8 7 7 7 6 6 7 6 5 5 5 5 5 4 4 3 3 2 2 1
Wind_Direction
248 248 250 250 257 256 255 252 254 259 257 254 250 247 250 246 245 259 261 258 260 257 253 265 269 272 277 279 274 269 271 271 252 224 222 226 226 228 230 232 232 229 229 224 220 217 218 213 208 208 207 204 195 195 186 178 179 184 176 173 175 176 178 182 185 179 170 169 167 165 164 160 159 159 154 151 147 145 144 144 140 144 144 145 159 170 185
239 237 237 237 242 244 247 243 243 245 249 250 248 249 243 241 249 254 255 252 254 259 266 260 263 272 276 279 281 278 273 269 267 247 241 256 211 210 225 232 232 226 227 227 222 219 219 213 212 208 204 198 195 191 188 182 181 178 165 177 177 180 184 186 178 171 169 168 168 165 162 162 157 151 147 145 142 140 139 138 135 140 145 149 162 178 189
240 234 237 236 238 237 247 248 246 245 249 251 245 247 252 251 246 245 248 253 259 261 259 262 267 267 271 275 272 270 270 270 266 263 259 265 257 212 225 234 232 229 230 230 227 220 220 216 213 208 204 200 194 188 183 180 179 178 174 177 183 183 186 178 171 168 168 168 161 164 160 152 150 148 146 144 141 139 139 142 144 146 148 155 170 189 201
238 230 237 236 235 232 237 244 250 246 240 242 241 240 235 238 243 245 247 250 251 253 256 258 261 265 264 262 265 269 269 266 268 269 269 269 268 261 243 230 232 229 227 230 228 225 223 221 216 210 202 194 182 191 183 181 179 171 176 180 182 183 177 169 169 168 166 160 162 162 158 158 155 150 144 143 144 143 141 142 145 143 151 171 180 192 202
240 231 230 233 236 237 235 231 236 238 238 237 244 248 251 246 242 246 246 245 241 243 246 256 260 257 256 257 259 261 268 277 271 271 262 259 264 264 259 221 227 231 230 226 224 224 222 222 218 211 197 183 192 189 180 183 161 170 177 178 178 176 173 169 167 164 159 159 160 159 160 152 149 143 144 138 136 133 135 130 139 154 168 173 184 193 204
247 230 245 235 235 219 224 211 221 223 234 235 235 238 238 241 234 239 235 248 250 252 248 245 251 256 257 254 252 256 267 273 282 272 260 259 261 264 254 229 221 224 225 232 231 223 217 217 215 207 184 189 195 182 171 156 165 173 172 174 170 169 164 166 163 161 159 160 161 159 152 148 146 145 143 133 124 123 129 144 156 160 166 174 181 190 197
247 239 244 243 231 238 226 231 228 232 239 242 242 242 241 248 251 251 250 249 249 250 248 246 248 251 257 259 264 282 262 258 260 269 271 266 260 257 243 251 247 241 233 228 234 231 223 218 211 177 187 187 152 148 157 163 167 166 171 166 170 170 169 167 161 162 162 162 160 157 153 151 149 148 145 122 136 146 154 157 157 160 166 170 180 179 192
260 229 209 243 244 109 276 205 211 215 234 239 252 258 251 249 247 249 251 251 250 249 250 251 250 253 257 270 288 271 262 255 250 249 252 260 262 260 251 243 259 253 241 233 226 227 216 195 188 179 183 166 157 165 158 163 164 167 167 170 173 171 170 168 166 166 163 163 160 156 153 153 152 145 146 147 151 151 146 142 142 147 155 161 173 176 174
240 228 225 242 278 274 160 157 205 205 225 225 225 245 240 231 241 245 256 260 259 254 249 249 254 260 273 289 275 265 262 262 253 236 237 247 260 265 261 236 247 256 244 229 232 219 189 184 175 186 163 157 155 150 158 163 164 167 168 176 180 176 172 170 170 168 166 162 159 159 159 155 146 147 150 147 144 142 141 147 152 157 156 160 163 165 180
213 243 241 250 236 241 234 221 212 216 231 234 239 244 262 200 245 229 245 248 248 251 252 254 262 273 275 267 266 262 265 260 258 248 226 227 244 250 260 269 267 263 256 226 225 189 189 190 188 164 158 156 155 157 163 162 165 173 175 186 180 176 177 174 170 167 167 163 161 162 162 163 152 147 137 126 140 146 144 147 151 155 153 146 160 171 190
215 234 236 230 241 248 185 226 222 232 236 239 248 259 264 170 230 203 239 246 245 250 255 257 249 243 243 247 253 261 259 265 257 257 265 240 231 240 240 239 249 250 252 223 189 173 165 190 183 156 153 152 152 164 164 167 169 174 189 184 180 182 177 169 166 165 165 164 162 162 165 151 128 141 146 144 140 130 129 128 134 140 142 150 164 182 200
226 242 238 242 224 261 211 219 217 231 238 249 272 262 272 156 213 225 233 241 247 259 261 253 244 239 248 243 246 252 268 270 278 254 242 245 229 229 235 237 229 227 197 124 143 171 194 189 145 148 149 152 158 157 166 162 175 190 195 190 175 161 158 161 161 163 163 162 162 161 156 135 127 120 123 123 136 135 129 127 133 139 151 163 171 182 202
225 226 249 254 258 236 166 200 216 226 230 217 238 245 271 246 211 227 232 243 249 256 266 276 283 257 257 268 278 282 277 292 294 271 248 231 227 228 231 244 203 159 161 175 188 194 179 153 151 152 149 152 165 168 166 175 195 201 180 155 159 159 154 155 158 159 158 162 158 155 150 138 121 116 126 130 125 130 134 136 137 142 153 154 162 196 214
237 237 238 243 257 233 170 252 221 216 324 242 248 316 349 351 353 354 358 352 351 358 0 358 347 339 333 327 329 324 313 297 285 277 269 269 268 264 266 181 147 144 147 172 175 165 166 156 158 157 158 163 168 169 175 198 206 164 156 160 153 153 155 156 156 155 154 154 155 141 126 133 132 127 127 128 135 133 128 133 141 135 144 153 185 206 211
242 233 251 251 230 34 359 313 268 6 254 340 0 341 358 26 25 13 12 20 5 8 347 341 339 339 346 357 352 346 339 342 337 332 327 319 297 289 289 299 295 138 177 204 214 201 168 165 163 168 164 170 175 179 191 210 176 159 157 151 150 151 152 154 156 155 154 150 145 142 134 138 133 134 134 126 124 129 133 129 133 142 157 180 190 198 202
261 234 231 227 45 322 358 31 16 337 307 317 349 2 353 10 33 18 356 357 1 353 346 341 334 335 341 343 346 344 340 340 338 336 335 333 330 317 302 284 253 186 223 230 230 194 166 173 177 172 175 176 182 185 213 168 134 137 144 150 150 152 154 154 152 153 148 137 133 137 137 138 126 127 135 133 132 137 128 134 144 154 174 183 184 186 196
337 328 332 303 315 314 314 6 328 303 302 2 348 3 10 16 9 14 358 341 337 341 341 331 331 326 330 329 327 329 325 325 324 321 319 315 308 303 295 283 259 199 223 232 222 182 182 184 191 190 192 187 184 204 189 135 155 152 153 151 153 157 156 154 151 149 136 129 140 137 149 144 135 132 135 141 133 143 143 151 158 165 174 171 176 182 172
303 282 258 284 318 315 323 317 324 307 325 9 359 8 353 6 344 352 332 321 320 316 322 318 317 313 312 314 314 314 314 311 308 305 303 301 296 290 282 274 232 226 237 242 213 224 205 195 197 198 201 188 195 211 152 156 151 153 151 155 159 160 156 154 153 148 134 132 138 146 145 138 122 142 147 150 139 143 151 163 167 168 166 165 175 172 165
313 286 336 305 307 309 307 304 304 255 358 332 353 346 345 325 321 313 302 298 299 299 298 297 294 301 303 303 300 299 300 300 299 297 293 289 286 282 273 253 235 218 212 222 232 229 234 205 200 210 209 217 215 127 159 154 151 150 155 158 157 157 160 157 155 154 145 149 147 148 142 136 133 134 140 135 136 143 161 165 166 168 165 168 172 166 164
273 283 293 294 295 283 274 283 306 298 317 319 306 306 302 308 309 308 304 303 295 293 294 290 286 285 289 291 294 296 296 294 294 293 291 291 291 280 253 253 221 213 210 220 231 229 237 224 195 204 209 215 196 156 151 152 148 151 158 165 165 169 165 164 156 157 148 148 148 149 157 150 147 148 151 151 154 164 169 170 165 169 170 173 172 165 163
294 288 275 267 293 302 298 289 344 316 303 310 313 314 313 308 310 311 305 291 290 295 290 289 286 282 278 279 284 288 292 294 293 292 293 293 290 291 293 266 199 209 216 222 228 226 236 222 183 199 209 203 174 166 159 154 155 159 166 167 165 164 165 160 153 163 153 157 154 145 145 141 113 148 153 161 159 158 172 168 169 162 167 165 162 157 151
292 293 315 356 331 314 313 310 314 313 319 313 312 315 315 316 313 312 311 315 312 295 288 293 292 288 288 289 290 288 290 292 297 298 299 298 298 296 287 279 225 230 223 221 225 226 235 213 191 203 205 195 180 171 161 162 162 165 164 163 166 170 170 172 159 158 157 155 149 144 143 147 148 130 132 146 151 153 155 172 171 166 159 159 157 149 155
288 308 314 315 300 293 292 303 316 320 319 323 330 336 332 332 337 344 345 335 329 325 321 316 316 315 316 313 316 310 305 301 299 297 297 298 298 295 292 289 279 244 237 229 230 236 236 206 202 205 200 191 180 176 171 170 171 170 162 165 172 173 173 182 178 163 153 147 153 129 129 126 129 128 140 159 162 158 158 163 165 165 162 160 160 162 161
279 284 283 287 289 291 302 307 310 312 347 14 348 334 329 328 333 331 327 324 318 315 313 310 309 307 306 305 305 303 303 300 300 298 296 294 294 294 294 288 282 276 262 234 229 236 234 210 207 201 197 194 186 180 174 174 175 171 172 169 175 181 183 168 171 166 153 144 140 136 136 139 121 133 140 141 150 162 166 168 170 168 162 161 161 164 162
281 291 293 296 295 298 304 306 324 1 2 347 339 328 327 328 324 326 319 318 314 310 308 307 305 300 297 299 301 299 297 298 297 296 296 295 292 290 288 287 284 278 269 254 243 239 239 218 203 194 197 199 183 177 178 178 178 179 180 181 179 178 177 168 159 160 150 140 148 143 149 149 148 149 150 154 146 149 163 168 163 157 155 158 157 157 155
282 299 328 333 300 295 314 341 345 350 339 338 330 328 324 327 328 327 321 314 310 308 301 300 301 303 299 293 292 294 294 293 295 296 295 289 288 285 283 280 278 276 270 263 256 245 236 216 203 198 202 198 184 185 181 182 184 186 186 187 181 174 174 171 156 166 164 156 148 156 154 154 154 152 158 159 147 146 145 154 157 152 149 151 153 148 147
333 28 5 346 331 320 351 350 304 318 327 333 325 320 318 316 320 314 304 299 294 292 294 295 296 298 301 298 290 284 285 290 293 292 291 290 287 283 282 282 279 275 272 266 256 244 233 213 202 200 210 205 191 182 182 184 186 190 189 188 183 182 174 170 156 157 163 159 149 149 153 156 156 157 154 157 158 157 159 160 157 153 155 135 140 145 135
55 25 41 354 304 315 304 307 318 326 320 318 319 313 314 312 308 309 307 305 305 308 307 305 304 309 307 305 306 303 301 293 288 288 288 285 283 285 286 285 284 283 281 276 269 259 236 209 205 208 218 208 181 182 183 183 186 187 188 184 178 171 173 175 173 155 151 153 160 149 122 145 155 156 152 153 158 158 154 151 149 143 139 147 159 151 139
354 349 342 316 287 282 293 322 320 314 310 310 312 310 315 320 316 311 308 307 308 308 303 303 307 304 300 299 304 300 297 295 290 286 283 285 286 284 281 280 279 277 275 274 271 260 236 214 212 217 228 200 174 181 182 182 186 185 183 181 178 177 175 175 176 171 154 146 126 136 148 145 142 142 143 144 142 144 150 151 146 141 140 139 117 118 88
332 325 320 312 290 302 348 323 317 315 315 321 325 319 318 319 313 308 306 308 311 309 304 305 306 300 298 297 294 293 294 294 294 292 288 284 282 280 280 280 281 277 276 269 260 243 219 212 212 217 222 177 174 178 179 183 188 187 185 183 182 181 179 176 166 161 140 147 155 150 145 147 144 147 145 147 150 152 152 149 148 145 146 155 155 155 144
321 315 306 291 299 346 323 304 308 307 311 316 318 311 307 308 299 297 300 305 308 304 304 304 301 301 300 297 297 297 295 291 289 288 287 284 280 278 278 280 276 274 267 261 252 235 220 216 213 218 205 170 172 176 176 182 183 181 185 182 180 174 165 162 162 153 156 155 155 149 147 144 145 144 145 143 143 146 149 147 144 142 144 145 147 146 150
319 317 317 321 346 321 313 311 314 311 312 315 314 312 313 316 311 307 305 305 303 305 303 304 302 301 301 301 298 294 291 289 289 285 284 282 281 280 277 274 274 274 272 269 265 246 225 223 222 223 177 167 175 172 175 177 175 177 184 178 175 171 167 160 159 159 158 156 149 149 152 150 149 145 139 146 148 150 150 149 147 148 149 150 149 145 160
343 337 334 337 339 332 325 318 321 315 315 312 305 298 298 296 294 291 288 291 297 297 296 293 293 294 297 299 295 292 291 290 288 282 278 278 276 274 272 273 271 271 270 266 262 253 224 219 226 203 163 173 168 172 177 178 178 178 173 169 170 162 162 165 158 156 146 147 151 152 151 151 149 147 148 143 140 140 143 146 145 147 148 146 141 148 157
316 276 280 297 297 302 306 304 307 307 303 296 289 291 291 294 296 296 295 293 285 284 289 289 291 295 293 288 288 288 289 291 288 287 282 283 281 282 282 281 278 278 274 271 266 257 238 228 218 161 167 163 168 172 175 174 173 169 165 164 159 158 161 161 155 152 148 147 146 143 143 143 147 144 143 142 142 144 147 150 149 146 137 132 134 146 194
293 292 288 286 289 282 280 282 289 294 298 298 299 297 292 289 291 291 294 295 293 294 295 292 289 286 284 282 282 282 279 276 277 280 282 281 282 280 281 279 276 272 269 265 257 252 235 218 184 162 157 161 165 170 172 172 168 163 164 161 157 156 156 148 152 155 149 145 139 135 138 142 140 136 135 138 140 142 142 143 145 143 137 135 138 145 213
307 295 292 288 284 282 279 279 280 281 284 285 285 288 292 292 295 295 295 294 295 294 290 290 288 284 283 281 282 280 278 275 278 275 278 276 278 280 277 273 272 271 268 267 255 237 213 178 159 153 154 161 166 169 169 166 164 160 158 154 151 148 145 143 142 139 140 141 146 147 145 137 131 136 136 130 131 135 138 138 141 138 137 136 141 145 143
297 295 293 293 289 286 283 280 281 283 283 283 284 287 288 290 290 290 291 290 294 294 291 290 289 284 280 279 277 274 273 275 277 275 275 274 275 275 274 271 268 267 266 267 255 161 178 169 162 156 157 165 167 169 165 161 158 155 153 150 147 145 144 144 149 146 143 140 138 132 128 129 133 131 130 130 134 135 137 136 135 133 133 138 138 141 132
298 293 291 290 293 293 290 286 283 281 281 282 280 280 283 289 292 293 291 292 292 293 292 286 283 283 282 280 273 271 276 275 274 272 273 272 272 272 270 269 268 266 259 257 220 155 187 159 159 153 158 161 163 162 161 161 150 151 152 152 149 147 146 143 141 140 140 126 132 124 127 134 133 134 132 131 131 136 138 135 136 138 138 140 142 142 144
301 296 284 285 285 287 287 289 287 282 283 285 288 290 290 290 290 292 290 289 289 288 287 286 282 282 286 291 289 286 281 284 289 294 293 292 293 288 282 283 293 308 302 334 133 156 137 148 154 157 156 160 154 154 155 151 146 148 147 146 146 144 145 143 144 143 145 141 136 136 134 137 133 134 134 135 133 132 133 137 139 138 141 143 145 149 156
303 303 301 303 299 299 299 296 295 291 287 284 288 292 297 296 294 293 291 291 287 280 281 292 297 295 291 288 289 291 299 301 298 298 303 303 297 284 280 274 327 325 321 97 108 126 144 146 148 149 155 151 151 151 154 149 147 145 146 147 148 147 148 146 139 129 137 135 132 131 129 133 133 132 131 131 134 136 135 137 137 138 138 138 141 148 155
301 303 302 303 300 302 301 302 300 297 294 291 290 288 291 292 294 294 294 294 293 298 299 294 291 290 289 292 294 296 297 297 314 323 320 310 309 301 293 300 344 316 344 72 124 134 140 146 146 146 145 144 146 145 144 144 142 143 145 147 146 146 142 137 134 127 121 140 143 143 140 135 133 130 133 133 136 133 138 136 140 141 144 145 147 153 161
303 303 301 302 303 302 300 296 294 294 293 291 291 293 293 292 292 292 289 290 300 303 298 296 291 293 299 304 304 304 303 312 318 315 339 336 317 307 306 314 346 352 74 94 110 121 128 127 132 134 136 138 137 141 141 141 139 140 139 140 139 139 134 133 132 130 124 122 126 128 129 132 133 133 135 133 136 139 139 137 134 136 137 141 148 158 158
309 308 308 306 302 302 300 298 295 293 293 295 296 298 299 296 294 289 289 302 304 300 303 301 305 306 307 305 310 311 317 327 324 323 332 342 354 346 347 357 25 51 79 96 103 111 111 116 120 124 131 132 135 134 131 128 130 131 133 131 132 122 109 114 123 130 127 119 107 121 133 135 137 137 139 139 139 138 140 143 141 143 143 147 146 147 155
307 306 302 302 301 300 299 295 293 294 298 299 303 301 300 298 293 296 306 305 304 306 308 309 311 312 314 315 313 320 319 325 324 321 318 338 12 21 14 26 38 53 59 73 76 80 89 94 93 111 113 121 126 125 123 124 127 129 128 123 124 120 78 109 118 125 127 129 131 128 125 132 133 136 134 136 134 134 135 129 130 133 137 138 139 145 157
304 303 302 300 300 299 297 300 303 305 303 301 301 304 304 302 307 309 306 305 305 312 317 318 319 321 320 324 318 337 329 324 319 327 328 355 15 26 11 27 39 45 50 61 59 63 69 88 105 109 116 119 116 111 114 120 122 122 124 118 115 121 121 121 120 120 120 121 118 122 123 127 129 129 131 130 135 137 138 139 136 138 140 138 146 155 168
303 303 302 301 298 300 302 302 302 300 301 305 305 304 309 312 312 313 313 318 322 322 330 330 327 325 325 327 322 329 341 347 2 4 23 20 36 19 32 47 53 59 64 60 60 68 82 94 101 106 108 106 104 102 109 110 115 115 112 112 111 113 111 114 114 115 117 119 121 121 121 120 120 124 129 135 134 127 125 120 124 125 131 135 146 157 168
304 302 298 295 299 303 305 304 303 306 307 309 311 313 316 316 320 316 338 343 336 332 337 339 331 330 334 338 337 336 344 355 20 25 26 37 46 51 52 57 57 60 61 68 71 77 88 90 94 96 97 97 98 105 109 111 106 90 95 106 108 108 103 108 111 114 112 112 108 105 102 105 109 113 114 114 115 121 127 127 124 127 123 126 134 145 150
301 299 301 307 308 309 308 309 313 311 314 316 312 311 318 324 320 329 347 339 340 343 349 347 346 346 347 353 351 357 347 331 26 33 14 32 45 55 57 71 77 78 76 75 75 78 82 87 90 93 95 95 96 105 92 80 93 98 99 102 100 99 100 88 94 105 108 107 107 96 82 92 91 106 111 113 110 120 127 127 129 125 132 142 162 172 171
299 300 305 309 310 307 315 322 319 318 318 320 322 324 329 328 327 341 344 341 347 356 356 356 356 359 3 6 15 18 31 33 51 61 44 51 60 67 71 76 79 80 79 77 76 77 79 83 85 89 92 96 95 93 75 73 89 91 89 89 90 94 87 85 85 81 91 106 110 109 111 112 107 109 114 113 120 121 121 118 124 133 147 154 162 162 163
303 308 316 314 312 321 329 321 322 324 326 327 329 331 334 336 341 349 348 348 351 359 4 6 7 6 7 13 19 28 35 47 53 55 57 56 57 60 69 72 75 75 76 81 81 79 76 77 80 82 87 86 81 82 84 81 83 84 88 94 86 81 94 100 99 98 100 103 106 108 110 113 112 108 108 114 117 121 117 118 120 125 131 142 155 166 165
310 316 312 308 319 322 318 320 321 326 323 326 331 339 341 348 347 345 344 355 349 2 10 9 15 13 17 25 29 33 41 46 53 57 64 64 66 65 65 67 67 65 69 70 72 75 77 77 82 79 75 73 76 78 77 70 66 83 83 68 82 83 93 100 104 101 97 105 108 109 110 112 112 114 114 119 122 123 124 125 127 138 148 166 168 171 170
306 303 297 315 321 318 321 323 325 332 331 339 340 346 349 350 344 353 356 3 359 354 6 8 18 20 21 25 33 41 43 48 55 60 61 60 61 63 62 61 64 60 59 68 71 54 51 67 74 74 75 69 62 74 77 78 79 84 86 88 90 90 92 95 99 101 103 104 107 109 110 114 117 116 116 120 125 130 132 135 141 149 167 178 173 153 135